When you browse on this site, cookies collect data to enhance your experience and personalize the content and advertising you see.
Visit our Privacy Policy to learn more. By continuing to use the site, you agree to this use of cookies and data.
  • în România
  • Lista ţărilor
  • Pe 7 zile
  • Temperatura apei
  • Meteo pe hartă
  • Widget-uri
  • user-avatar
    Intrare

    Meteo pe oră la Rokochevo

    Astăzi, 23 Octombrie, Miercuri

    Timp Temperatura Precipitaţii Vânt Presiune Umiditate
    00:00 +11°C° 0 mm 4 m/s 743 mmHg 85%
    01:00 +11°C° 0 mm 4 m/s 743 mmHg 85%
    02:00 +11°C° 0 mm 4 m/s 743 mmHg 86%
    03:00 +11°C° 0.1 mm 4 m/s 743 mmHg 85%
    04:00 +11°C° 0.1 mm 4 m/s 743 mmHg 84%
    05:00 +11°C° 0.1 mm 4 m/s 743 mmHg 83%
    06:00 +10°C° 0 mm 4 m/s 743 mmHg 83%
    07:00 +10°C° 0 mm 4 m/s 744 mmHg 84%
    08:00 +9°C° 0 mm 3 m/s 744 mmHg 84%
    09:00 +8°C° 0 mm 4 m/s 744 mmHg 83%
    10:00 +10°C° 0 mm 4 m/s 744 mmHg 82%
    11:00 +10°C° 0 mm 4 m/s 744 mmHg 81%
    12:00 +10°C° 0 mm 4 m/s 744 mmHg 79%
    13:00 +10°C° 0 mm 3 m/s 745 mmHg 78%
    14:00 +10°C° 0 mm 3 m/s 745 mmHg 77%
    15:00 +10°C° 0 mm 3 m/s 745 mmHg 79%
    16:00 +10°C° 0 mm 3 m/s 745 mmHg 80%
    17:00 +10°C° 0 mm 2 m/s 745 mmHg 81%
    18:00 +9°C° 0 mm 2 m/s 745 mmHg 83%
    19:00 +9°C° 0 mm 2 m/s 745 mmHg 86%
    20:00 +9°C° 0 mm 2 m/s 746 mmHg 88%
    21:00 +8°C° 0 mm 2 m/s 746 mmHg 88%
    22:00 +8°C° 0 mm 2 m/s 746 mmHg 89%
    23:00 +8°C° 0 mm 2 m/s 746 mmHg 89%

    Mâine, 24 Octombrie, Joi

    Timp Temperatura Precipitaţii Vânt Presiune Umiditate
    00:00 +8°C° 0 mm 2 m/s 746 mmHg 90%
    01:00 +7°C° 0 mm 2 m/s 746 mmHg 92%
    02:00 +7°C° 0 mm 2 m/s 746 mmHg 93%
    03:00 +7°C° 0 mm 2 m/s 746 mmHg 93%
    04:00 +7°C° 0 mm 2 m/s 746 mmHg 94%
    05:00 +7°C° 0 mm 2 m/s 746 mmHg 94%
    06:00 +7°C° 0 mm 2 m/s 746 mmHg 94%
    07:00 +7°C° 0 mm 1 m/s 746 mmHg 94%
    08:00 +7°C° 0 mm 1 m/s 746 mmHg 94%
    09:00 +8°C° 0 mm 1 m/s 747 mmHg 90%
    10:00 +9°C° 0 mm 1 m/s 747 mmHg 87%
    11:00 +9°C° 0 mm 1 m/s 747 mmHg 83%
    12:00 +10°C° 0 mm 1 m/s 747 mmHg 82%
    13:00 +10°C° 0 mm 1 m/s 747 mmHg 80%
    14:00 +9°C° 0 mm 2 m/s 747 mmHg 79%
    15:00 +9°C° 0 mm 1 m/s 747 mmHg 82%
    16:00 +8°C° 0 mm 1 m/s 747 mmHg 86%
    17:00 +7°C° 0 mm 1 m/s 747 mmHg 90%
    18:00 +7°C° 0 mm 1 m/s 747 mmHg 92%
    19:00 +6°C° 0 mm 1 m/s 747 mmHg 93%
    20:00 +6°C° 0 mm 1 m/s 747 mmHg 95%
    21:00 +6°C° 0 mm 1 m/s 747 mmHg 95%
    22:00 +5°C° 0 mm 1 m/s 747 mmHg 95%
    23:00 +5°C° 0 mm 1 m/s 747 mmHg 96%

    Poimâine, 25 Octombrie, Vineri

    Timp Temperatura Precipitaţii Vânt Presiune Umiditate
    00:00 +5°C° 0 mm 1 m/s 747 mmHg 96%
    01:00 +5°C° 0 mm 1 m/s 748 mmHg 96%
    02:00 +5°C° 0 mm 1 m/s 748 mmHg 96%
    03:00 +4°C° 0 mm 2 m/s 747 mmHg 96%
    04:00 +4°C° 0 mm 2 m/s 747 mmHg 95%
    05:00 +4°C° 0 mm 2 m/s 747 mmHg 95%
    06:00 +4°C° 0 mm 2 m/s 747 mmHg 94%
    07:00 +5°C° 0 mm 2 m/s 747 mmHg 92%
    08:00 +5°C° 0 mm 2 m/s 746 mmHg 91%
    09:00 +5°C° 0 mm 3 m/s 746 mmHg 85%
    10:00 +8°C° 0 mm 3 m/s 746 mmHg 80%
    11:00 +9°C° 0 mm 3 m/s 746 mmHg 75%
    12:00 +10°C° 0 mm 4 m/s 745 mmHg 72%
    13:00 +10°C° 0 mm 4 m/s 744 mmHg 70%
    14:00 +11°C° 0 mm 4 m/s 744 mmHg 67%
    15:00 +9°C° 0 mm 5 m/s 743 mmHg 70%
    16:00 +9°C° 0 mm 5 m/s 743 mmHg 73%
    17:00 +8°C° 0 mm 5 m/s 742 mmHg 76%
    18:00 +8°C° 0 mm 5 m/s 742 mmHg 80%
    19:00 +8°C° 0 mm 5 m/s 742 mmHg 84%
    20:00 +8°C° 0 mm 4 m/s 742 mmHg 88%
    21:00 +8°C° 0 mm 4 m/s 742 mmHg 90%
    22:00 +10°C° 0 mm 4 m/s 742 mmHg 92%
    23:00 +10°C° 0 mm 3 m/s 742 mmHg 94%

    26 Octombrie, Sâmbătă

    Timp Temperatura Precipitaţii Vânt Presiune Umiditate
    00:00 +10°C° 0 mm 3 m/s 742 mmHg 94%
    01:00 +10°C° 0 mm 3 m/s 743 mmHg 93%
    02:00 +10°C° 0 mm 2 m/s 743 mmHg 93%
    03:00 +10°C° 0 mm 2 m/s 743 mmHg 94%
    04:00 +9°C° 0 mm 2 m/s 743 mmHg 94%
    05:00 +8°C° 0 mm 2 m/s 743 mmHg 94%
    06:00 +8°C° 0 mm 2 m/s 743 mmHg 94%
    07:00 +8°C° 0 mm 2 m/s 743 mmHg 94%
    08:00 +7°C° 0 mm 2 m/s 743 mmHg 95%
    09:00 +8°C° 0 mm 2 m/s 743 mmHg 89%
    10:00 +9°C° 0 mm 2 m/s 742 mmHg 84%
    11:00 +10°C° 0 mm 3 m/s 742 mmHg 78%
    12:00 +10°C° 0 mm 3 m/s 742 mmHg 75%
    13:00 +10°C° 0 mm 4 m/s 741 mmHg 72%
    14:00 +11°C° 0 mm 4 m/s 741 mmHg 68%
    15:00 +10°C° 0 mm 4 m/s 740 mmHg 70%
    16:00 +10°C° 0 mm 4 m/s 739 mmHg 72%
    17:00 +9°C° 0 mm 5 m/s 739 mmHg 74%
    18:00 +9°C° 0 mm 5 m/s 738 mmHg 77%
    19:00 +9°C° 0 mm 5 m/s 737 mmHg 80%
    20:00 +10°C° 0 mm 5 m/s 737 mmHg 83%
    21:00 +10°C° 0.2 mm 5 m/s 736 mmHg 85%
    22:00 +10°C° 0.2 mm 6 m/s 736 mmHg 86%
    23:00 +11°C° 0.2 mm 6 m/s 735 mmHg 87%

    27 Octombrie, Duminică

    Timp Temperatura Precipitaţii Vânt Presiune Umiditate
    00:00 +10°C° 0.8 mm 6 m/s 735 mmHg 87%
    01:00 +10°C° 0.8 mm 6 m/s 735 mmHg 86%
    02:00 +10°C° 0.8 mm 5 m/s 735 mmHg 86%
    03:00 +9°C° 0.1 mm 5 m/s 735 mmHg 82%
    04:00 +8°C° 0.1 mm 5 m/s 735 mmHg 79%
    05:00 +7°C° 0.1 mm 4 m/s 735 mmHg 75%
    06:00 +7°C° 0 mm 4 m/s 735 mmHg 75%
    07:00 +6°C° 0 mm 4 m/s 735 mmHg 74%
    08:00 +6°C° 0 mm 5 m/s 735 mmHg 73%
    09:00 +6°C° 0 mm 5 m/s 735 mmHg 71%
    10:00 +7°C° 0 mm 5 m/s 735 mmHg 68%
    11:00 +7°C° 0 mm 5 m/s 734 mmHg 65%
    12:00 +7°C° 0 mm 4 m/s 734 mmHg 63%
    13:00 +7°C° 0 mm 4 m/s 734 mmHg 62%
    14:00 +7°C° 0 mm 4 m/s 734 mmHg 61%
    15:00 +7°C° 0 mm 3 m/s 734 mmHg 66%
    16:00 +5°C° 0 mm 3 m/s 733 mmHg 72%
    17:00 +5°C° 0 mm 3 m/s 733 mmHg 78%
    18:00 +4°C° 0 mm 3 m/s 733 mmHg 79%
    19:00 +4°C° 0 mm 3 m/s 734 mmHg 81%
    20:00 +3°C° 0 mm 4 m/s 734 mmHg 83%
    21:00 +3°C° 0 mm 4 m/s 734 mmHg 84%
    22:00 +3°C° 0 mm 3 m/s 734 mmHg 85%
    23:00 +3°C° 0 mm 3 m/s 734 mmHg 86%

    28 Octombrie, Luni

    Timp Temperatura Precipitaţii Vânt Presiune Umiditate
    00:00 +3°C° 0 mm 3 m/s 734 mmHg 85%
    01:00 +3°C° 0 mm 3 m/s 733 mmHg 84%
    02:00 +4°C° 0 mm 3 m/s 733 mmHg 83%
    03:00 +4°C° 0.2 mm 3 m/s 733 mmHg 85%
    04:00 +4°C° 0.2 mm 3 m/s 732 mmHg 87%
    05:00 +4°C° 0.2 mm 3 m/s 732 mmHg 88%
    06:00 +4°C° 0.5 mm 3 m/s 731 mmHg 89%
    07:00 +4°C° 0.5 mm 4 m/s 731 mmHg 89%
    08:00 +4°C° 0.5 mm 4 m/s 731 mmHg 89%
    09:00 +4°C° 0.3 mm 4 m/s 731 mmHg 87%
    10:00 +4°C° 0.3 mm 4 m/s 731 mmHg 85%
    11:00 +5°C° 0.3 mm 3 m/s 731 mmHg 83%
    12:00 +5°C° 0.3 mm 3 m/s 731 mmHg 84%
    13:00 +5°C° 0.3 mm 3 m/s 731 mmHg 84%
    14:00 +5°C° 0.3 mm 3 m/s 731 mmHg 84%
    15:00 +4°C° 0.1 mm 3 m/s 731 mmHg 85%
    16:00 +4°C° 0.1 mm 3 m/s 732 mmHg 87%
    17:00 +4°C° 0.1 mm 2 m/s 732 mmHg 88%
    18:00 +3°C° 0.3 mm 3 m/s 732 mmHg 88%
    19:00 +3°C° 0.3 mm 3 m/s 732 mmHg 87%
    20:00 +3°C° 0.3 mm 3 m/s 732 mmHg 87%
    21:00 +3°C° 0.2 mm 3 m/s 733 mmHg 88%
    22:00 +3°C° 0.2 mm 2 m/s 733 mmHg 88%
    23:00 +3°C° 0.2 mm 2 m/s 733 mmHg 88%

    29 Octombrie, Marţi

    Timp Temperatura Precipitaţii Vânt Presiune Umiditate
    00:00 +2°C° 0 mm 2 m/s 733 mmHg 88%
    01:00 +1°C° 0 mm 3 m/s 733 mmHg 87%
    02:00 0°C° 0 mm 3 m/s 733 mmHg 86%
    03:00 0°C° 0 mm 3 m/s 733 mmHg 86%
    04:00 -1°C° 0 mm 3 m/s 733 mmHg 86%
    05:00 -1°C° 0 mm 3 m/s 733 mmHg 86%
    06:00 -1°C° 0 mm 3 m/s 734 mmHg 87%
    07:00 -1°C° 0 mm 3 m/s 734 mmHg 87%
    08:00 -1°C° 0 mm 3 m/s 734 mmHg 88%
    09:00 -1°C° 0.1 mm 3 m/s 734 mmHg 87%
    10:00 -1°C° 0.1 mm 3 m/s 735 mmHg 86%
    11:00 0°C° 0.1 mm 3 m/s 735 mmHg 85%
    12:00 0°C° 0.2 mm 3 m/s 735 mmHg 87%
    13:00 0°C° 0.2 mm 3 m/s 736 mmHg 88%
    14:00 0°C° 0.2 mm 3 m/s 736 mmHg 89%
    15:00 -1°C° 0.4 mm 3 m/s 736 mmHg 91%
    16:00 -1°C° 0.4 mm 3 m/s 737 mmHg 94%
    17:00 -1°C° 0.4 mm 3 m/s 737 mmHg 96%
    18:00 -1°C° 0.3 mm 3 m/s 738 mmHg 94%
    19:00 -3°C° 0.3 mm 4 m/s 738 mmHg 92%
    20:00 -3°C° 0.3 mm 4 m/s 739 mmHg 89%
    21:00 -3°C° 0.1 mm 4 m/s 740 mmHg 88%
    22:00 -3°C° 0.1 mm 4 m/s 741 mmHg 86%
    23:00 -3°C° 0.1 mm 4 m/s 741 mmHg 85%
    Arată mai mult